CZ-6A DEB

Satellite information

Favourite Embed

Satellite Type and Status

DEBRISIN ORBIT

Key statistics

Satellite CZ-6A DEB at a glance.

Uptime

273

Days in orbit

Revolutions

≈ 14.4

Per day

Orbit

LEO

Low Earth Orbit

Inclination

88.6

Latest

Satellite identification and parameters

Extended collection of information and parameters for CZ-6A DEB.

Object identification

Identified? True

Debris? True

Object name: CZ-6A DEB

International designator: 2024-140JN

Object number (NORAD): 60859

Object ID (CCSDS): 60859

Country: PEOPLES REPUBLIC OF CHINA (PRC)

Current information (Y/N): Y

RCS size: SMALL

Orbital parameters

Period: 100.044 minutes

Inclination: 88.5608 deg

SMA: 7138.743 km

Apoapsis: 804.549 km

Periapsis: 716.667 km

RAAN: 305.1181 deg

Eccentricy: 0.0061553

Argument of periapsis: 272.3827 deg

Mean anomaly: 87.0328 deg

Mean motion: 14.39362455 rev/day

Mean motion (dot): 0.00002028 rev/day2

B* drag term: 0.00063348 1/REarth

Two-line elements (TLE)

Creation date: May 6, 2025, 3:54 a.m.

Reference frame: TEME

Reference center: EARTH

Epoch: May 5, 2025, 9:52 p.m. UTC

TLE line 0: 0 CZ-6A DEB

TLE line 1: 1 60859U 24140JN 25125.91161528 .00002028 00000-0 63348-3 0 9996

TLE line 2: 2 60859 88.5608 305.1181 0061553 272.3827 87.0328 14.39362455 37870

Live tracking on map

Real-time ground track for satellite CZ-6A DEB.

In-orbit conjunctions

A list of the most updated potential collisions computed for object CZ-6A DEB.

Target Orbit TCA Probability of collision Miss distance Type
NOAA 16 DEB SSO 2025-02-15 03:33:42 0.0001738119 345.0 (m) DEBRIS
COSMOS 614 LEO 2025-02-10 18:11:18 0.0004007278 391.0 (m) PAYLOAD
FENGYUN 1C DEB SSO 2024-12-13 05:15:38 0.0001143901 662.0 (m) DEBRIS
SL-8 R/B LEO 2024-11-02 22:28:06 0.0002573679 580.0 (m) ROCKET BODY
FENGYUN 1C DEB SSO 2024-09-18 08:52:06 0.0001889927 962.0 (m) DEBRIS

Associated space launch

18 Low Earth Orbit communication satellites with Ku, Q and V band payloads for the G60 constellation operated by Shanghai Spacecom Satellite Technology (SSST) with funding backed by the Shanghai local government. Initial constellation will consist of 1296 satellites by 2027 with long term plans to expand it to 12000 satellites.

CZ-6A DEB was lifted into orbit during the mission ‘Long March 6A | G60 Polar Group 01’, on board a Long March 6A space rocket.

The launch took place on Aug. 6, 2024, 6:42 a.m. from Launch Complex 9A.

For more information about the launch, click the button.

Launch to space Long March 6A | G60 Polar Group 01
Long March 6A | G60 Polar Group 01

Agency: N/A

Status: Launch Successful

Launch date: Aug. 6, 2024, 6:42 a.m. UTC

Rocket: Long March 6A

Launch pad: Launch Complex 9A

Location: Taiyuan Satellite Launch Center, People's Republic of China

...

Latest news about this satellite

News about space launch
Brightness of first Chinese broadband constellation satellites alarms astronomers

The first satellites of a Chinese broadband constellation are significantly brighter than those of Western systems, posing a new challenge for astronomers.

News about space launch
Chinese rocket stage breaks up into cloud of more than 700 pieces of space debris

HELSINKI — A Chinese Long March 6A rocket’s upper stage has fragmented into a cloud of over 700 pieces of space debris, adding to concerns about long-term orbital safety. China […]

News about space launch
China's Thousand Sails Megaconstellation Kicks Off with Dangerous Debris Field

China's Thousand Sails Megaconstellation Kicks Off with Dangerous Debris Field


Newsletter sign-up

Weekly statistics, charts and insights to help you stay on top of the space industry.